G4KVI Weather Reports


time (UTC)temp
C
wind
direction
speed
KPH
gust
KPH
rain 1hr
cm
rain 24hr
cm
rain mn
cm
humidity
%
barometer
mb
20260510164504 12 68 4.8 12.9 0.00 0.00 0.00 57 1016.9
20260510164004 12 76 6.4 16.1 0.00 0.00 0.00 57 1017.0
20260510163504 12 68 8.0 16.1 0.00 0.00 0.00 57 1017.0
20260510163007 12 67 8.0 17.7 0.00 0.00 0.00 56 1017.2
20260510162504 12 78 8.0 17.7 0.00 0.00 0.00 56 1017.2
20260510162004 13 70 6.4 17.7 0.00 0.00 0.00 54 1017.3
20260510161504 13 49 4.8 12.9 0.00 0.00 0.00 54 1016.9
20260510161004 13 60 4.8 12.9 0.00 0.00 0.00 56 1017.5
20260510160504 12 67 6.4 24.1 0.00 0.00 0.00 58 1017.4
20260510160004 12 62 6.4 24.1 0.00 0.00 0.00 57 1017.5
20260510155504 12 56 6.4 12.9 0.00 0.00 0.00 58 1017.6
20260510155005 12 43 6.4 14.5 0.00 0.00 0.00 58 1017.5
20260510154504 12 48 6.4 16.1 0.00 0.00 0.00 57 1017.6
20260510154004 12 78 6.4 16.1 0.00 0.00 0.00 58 1017.7
20260510153504 12 83 8.0 20.9 0.00 0.00 0.00 58 1017.8
20260510153004 12 73 9.7 20.9 0.00 0.00 0.00 59 1017.6
20260510152504 12 65 8.0 17.7 0.00 0.00 0.00 58 1017.9
20260510152004 12 69 8.0 17.7 0.00 0.00 0.00 59 1017.7
20260510151004 12 73 8.0 17.7 0.00 0.00 0.00 60 1018.1
20260510150504 12 71 8.0 20.9 0.00 0.00 0.00 60 1018.3
20260510150007 12 69 6.4 20.9 0.00 0.00 0.00 61 1018.1
20260510145504 12 52 6.4 16.1 0.00 0.00 0.00 62 1018.4
20260510145004 12 56 8.0 22.5 0.00 0.00 0.00 62 1018.0
20260510144504 12 75 9.7 22.5 0.00 0.00 0.00 62 1018.0
20260510144004 12 77 8.0 16.1 0.00 0.00 0.00 62 1018.4
20260510143504 12 78 6.4 16.1 0.00 0.00 0.00 62 1018.5
20260510143004 12 79 6.4 16.1 0.00 0.00 0.00 63 1018.4
20260510142504 12 62 6.4 14.5 0.00 0.00 0.00 62 1018.8
20260510142026 12 64 6.4 16.1 0.00 0.00 0.00 62 1018.6
20260510135004 12 85 6.4 20.9 0.00 0.00 0.00 62 1018.8
20260510134504 12 83 6.4 17.7 0.00 0.00 0.00 63 1018.9
20260510134004 12 78 8.0 17.7 0.00 0.00 0.00 62 1018.9
20260510133504 12 73 9.7 22.5 0.00 0.00 0.00 63 1018.7
20260510133004 12 69 9.7 22.5 0.00 0.00 0.00 63 1018.9
20260510132504 12 76 8.0 16.1 0.00 0.00 0.00 64 1018.9
20260510132004 12 75 8.0 16.1 0.00 0.00 0.00 64 1019.0
20260510131504 12 55 8.0 16.1 0.00 0.00 0.00 63 1018.9
20260510131004 12 50 8.0 17.7 0.00 0.00 0.00 63 1018.7
20260510130504 12 60 6.4 17.7 0.00 0.00 0.00 63 1018.6
20260510130004 12 66 8.0 20.9 0.00 0.00 0.00 63 1019.0
20260510125504 12 68 9.7 20.9 0.00 0.00 0.00 64 1018.9
20260510125004 12 74 9.7 20.9 0.00 0.00 0.00 64 1019.1
20260510124504 12 84 8.0 17.7 0.00 0.00 0.00 63 1019.2
20260510124004 12 80 8.0 20.9 0.00 0.00 0.00 64 1019.0
20260510123504 11 75 9.7 20.9 0.00 0.00 0.00 64 1019.1
20260510123004 12 73 8.0 20.9 0.00 0.00 0.00 65 1019.3
20260510122505 12 74 9.7 27.4 0.00 0.00 0.00 63 1019.1
20260510122004 12 76 9.7 27.4 0.00 0.00 0.00 63 1019.3
20260510121505 12 82 8.0 17.7 0.00 0.00 0.00 63 1019.2
20260510121004 12 83 8.0 20.9 0.00 0.00 0.00 65 1019.2
20260510120511 12 82 8.0 20.9 0.00 0.00 0.00 64 1019.4
20260510120004 12 85 9.7 17.7 0.00 0.00 0.00 65 1019.3
20260510115504 11 79 11.3 22.5 0.00 0.00 0.00 65 1019.3
20260510115003 11 81 11.3 24.1 0.00 0.00 0.00 65 1019.4
20260510114505 11 82 9.7 24.1 0.00 0.00 0.00 65 1019.5
20260510114004 11 74 9.7 29.0 0.00 0.00 0.00 66 1019.7
20260510113504 11 69 9.7 29.0 0.00 0.00 0.00 67 1019.4
20260510113004 11 65 11.3 25.7 0.00 0.00 0.00 66 1019.8
20260510112504 11 68 11.3 25.7 0.00 0.00 0.00 66 1019.6
20260510112004 11 66 9.7 25.7 0.00 0.00 0.00 65 1019.7
20260510111504 12 61 9.7 25.7 0.00 0.00 0.00 66 1019.9
20260510111004 12 64 9.7 27.4 0.00 0.00 0.00 66 1019.6
20260510110504 12 62 9.7 27.4 0.00 0.00 0.00 66 1019.8
20260510110005 12 67 9.7 25.7 0.00 0.00 0.00 67 1019.6
20260510105504 11 71 11.3 25.7 0.00 0.00 0.00 67 1019.9
20260510105004 12 71 11.3 24.1 0.00 0.00 0.00 66 1019.9
20260510104504 12 71 9.7 24.1 0.00 0.00 0.00 65 1019.8
20260510104004 12 55 9.7 22.5 0.00 0.00 0.00 64 1019.5
20260510103503 12 66 8.0 24.1 0.00 0.00 0.00 64 1019.7
20260510103005 12 71 8.0 24.1 0.00 0.00 0.00 63 1019.6
20260510102504 12 65 9.7 20.9 0.00 0.00 0.00 65 1019.9
20260510102003 12 68 9.7 20.9 0.00 0.00 0.00 65 1019.8
20260510101504 12 76 9.7 22.5 0.00 0.00 0.00 66 1019.7
20260510101004 12 78 9.7 22.5 0.00 0.00 0.00 65 1020.0
20260510100504 12 70 8.0 22.5 0.00 0.00 0.00 65 1019.9
20260510100004 11 56 8.0 20.9 0.00 0.00 0.00 66 1019.9
20260510095504 11 69 8.0 22.5 0.00 0.00 0.00 66 1020.0
20260510095004 12 71 8.0 22.5 0.00 0.00 0.00 65 1019.8
20260510094504 11 73 9.7 22.5 0.00 0.00 0.00 66 1020.0
20260510094004 11 86 8.0 22.5 0.00 0.00 0.00 67 1020.2
20260510093503 11 81 6.4 16.1 0.00 0.00 0.00 68 1020.2
20260510093004 11 76 8.0 17.7 0.00 0.00 0.00 68 1020.2
20260510092503 11 77 8.0 22.5 0.00 0.00 0.00 68 1020.3
20260510092003 11 72 8.0 22.5 0.00 0.00 0.00 69 1020.1
20260510091503 11 65 8.0 16.1 0.00 0.00 0.00 70 1020.2
20260510091005 11 69 6.4 14.5 0.00 0.00 0.00 70 1020.4
20260510090503 11 68 8.0 22.5 0.00 0.00 0.00 70 1020.1
20260510090004 10 67 8.0 22.5 0.00 0.00 0.00 70 1020.3
20260510085503 10 66 6.4 17.7 0.00 0.00 0.00 70 1020.5
20260510085003 10 73 8.0 22.5 0.00 0.00 0.00 69 1020.1
20260510084507 10 78 9.7 24.1 0.00 0.00 0.00 69 1020.3
20260510084003 10 83 9.7 24.1 0.00 0.00 0.00 69 1020.4
20260510083504 10 74 9.7 24.1 0.00 0.00 0.00 69 1020.5
20260510083003 10 65 9.7 24.1 0.00 0.00 0.00 69 1020.3
20260510082504 10 68 9.7 20.9 0.00 0.00 0.00 69 1020.4
20260510082003 10 71 9.7 24.1 0.00 0.00 0.00 68 1020.4
20260510081504 10 73 11.3 24.1 0.00 0.00 0.00 69 1020.4
20260510081003 10 70 11.3 24.1 0.00 0.00 0.00 69 1020.5
20260510080505 10 73 9.7 24.1 0.00 0.00 0.00 69 1020.0
20260510080004 10 77 11.3 24.1 0.00 0.00 0.00 70 1020.5
20260510075503 10 68 11.3 24.1 0.00 0.00 0.00 70 1020.5
20260510075003 10 66 11.3 24.1 0.00 0.00 0.00 71 1020.4
20260510074503 10 72 9.7 24.1 0.00 0.00 0.00 71 1020.3
20260510074003 10 80 9.7 22.5 0.00 0.00 0.00 71 1020.2
20260510073503 10 79 11.3 33.8 0.00 0.00 0.00 71 1020.4
20260510073003 10 73 8.0 33.8 0.00 0.00 0.00 71 1020.0
20260510072504 10 70 8.0 27.4 0.00 0.00 0.00 72 1020.0
20260510072003 10 70 9.7 27.4 0.00 0.00 0.00 73 1020.2
20260510071503 10 71 8.0 22.5 0.00 0.00 0.00 72 1020.1
20260510071004 10 80 8.0 24.1 0.00 0.00 0.00 73 1020.3
20260510070503 10 85 8.0 24.1 0.00 0.00 0.00 73 1020.3
20260510070004 10 81 11.3 27.4 0.00 0.00 0.00 74 1020.0
20260510065503 9 77 11.3 27.4 0.00 0.00 0.00 74 1020.1
20260510065003 9 68 9.7 24.1 0.00 0.00 0.00 75 1020.1
20260510064503 9 69 9.7 27.4 0.00 0.00 0.00 75 1020.1
20260510064004 9 74 9.7 33.8 0.00 0.00 0.00 75 1020.1
20260510063503 9 65 8.0 33.8 0.00 0.00 0.00 75 1020.0
20260510063003 9 67 8.0 22.5 0.00 0.00 0.00 75 1020.0
20260510062503 9 74 9.7 22.5 0.00 0.00 0.00 75 1019.9
20260510062003 9 67 9.7 17.7 0.00 0.00 0.00 76 1019.9
20260510061503 9 71 11.3 24.1 0.00 0.00 0.00 76 1019.8
20260510061003 9 72 9.7 24.1 0.00 0.00 0.00 76 1020.0
20260510060503 9 64 8.0 22.5 0.00 0.00 0.00 77 1020.1
20260510060004 9 67 8.0 17.7 0.00 0.00 0.00 77 1019.9
20260510055503 9 66 8.0 25.7 0.00 0.00 0.00 77 1020.0
20260510055003 9 70 8.0 25.7 0.00 0.00 0.00 77 1020.2
20260510054503 9 72 9.7 25.7 0.00 0.00 0.00 78 1020.0
20260510054003 9 64 8.0 20.9 0.00 0.00 0.00 78 1020.2
20260510053504 9 65 8.0 24.1 0.00 0.00 0.00 78 1020.0
20260510053004 9 64 8.0 24.1 0.00 0.00 0.00 78 1020.1
20260510052503 8 59 8.0 20.9 0.00 0.00 0.00 78 1020.0
20260510052003 8 61 8.0 17.7 0.00 0.00 0.00 78 1020.0
20260510051504 8 68 8.0 17.7 0.00 0.00 0.00 78 1020.1
20260510051003 8 78 6.4 16.1 0.00 0.00 0.00 78 1019.9
20260510050503 8 76 6.4 16.1 0.00 0.00 0.00 78 1020.0
20260510050004 8 68 8.0 16.1 0.00 0.00 0.00 79 1020.0
20260510045503 8 55 8.0 17.7 0.00 0.00 0.00 79 1020.0
20260510045003 8 58 8.0 17.7 0.00 0.00 0.00 79 1020.2
20260510044503 8 72 8.0 17.7 0.00 0.00 0.00 79 1020.2
20260510044003 8 72 8.0 22.5 0.00 0.00 0.00 79 1020.2
20260510043503 8 68 6.4 22.5 0.00 0.00 0.00 79 1020.0
20260510043004 8 59 6.4 17.7 0.00 0.00 0.00 79 1020.2
20260510042503 8 73 6.4 17.7 0.00 0.00 0.00 79 1020.1
20260510042003 8 78 6.4 14.5 0.00 0.00 0.00 79 1020.2
20260510041503 8 65 8.0 17.7 0.00 0.00 0.00 79 1020.1
20260510041004 8 66 8.0 17.7 0.00 0.00 0.00 79 1020.1
20260510040003 8 75 6.4 12.9 0.00 0.00 0.00 79 1020.3
20260510035503 8 76 6.4 17.7 0.00 0.00 0.00 79 1020.3
20260510035003 8 69 8.0 17.7 0.00 0.00 0.00 79 1020.4
20260510034503 8 75 6.4 17.7 0.00 0.00 0.00 79 1020.5
20260510034003 8 84 8.0 24.1 0.00 0.00 0.00 79 1020.5
20260510033506 8 81 9.7 24.1 0.00 0.00 0.00 79 1020.6
20260510033003 8 75 6.4 17.7 0.00 0.00 0.00 79 1020.6
20260510032504 8 65 8.0 17.7 0.00 0.00 0.00 79 1020.6
20260510032003 8 61 8.0 16.1 0.00 0.00 0.00 79 1020.6
20260510031503 8 71 4.8 16.1 0.00 0.00 0.00 79 1020.5
20260510031003 8 76 4.8 16.1 0.00 0.00 0.00 79 1020.4
20260510030503 8 77 6.4 17.7 0.00 0.00 0.00 79 1020.4
20260510030004 8 71 8.0 20.9 0.00 0.00 0.00 79 1020.6
20260510025503 8 66 8.0 20.9 0.00 0.00 0.00 78 1020.4
20260510025003 8 69 6.4 20.9 0.00 0.00 0.00 78 1020.3
20260510024503 8 65 6.4 14.5 0.00 0.00 0.00 77 1020.3
20260510024004 9 60 6.4 14.5 0.00 0.00 0.00 76 1020.3
20260510023503 9 63 6.4 14.5 0.00 0.00 0.00 75 1020.3
20260510023003 9 66 4.8 12.9 0.00 0.00 0.00 74 1020.7
20260510022503 9 63 4.8 17.7 0.00 0.00 0.00 72 1020.3
20260510022003 9 62 6.4 17.7 0.00 0.00 0.00 72 1020.5
20260510021503 9 68 6.4 17.7 0.00 0.00 0.00 71 1020.7
20260510021003 9 77 4.8 17.7 0.00 0.00 0.00 70 1020.6
20260510020503 9 82 4.8 14.5 0.00 0.00 0.00 70 1020.7
20260510020003 10 74 6.4 16.1 0.00 0.00 0.00 69 1020.4
20260510015503 10 76 6.4 16.1 0.00 0.00 0.00 68 1020.3
20260510015003 10 80 6.4 17.7 0.00 0.00 0.00 67 1020.7
20260510014503 10 75 6.4 17.7 0.00 0.00 0.00 66 1020.5
20260510014003 10 73 4.8 11.3 0.00 0.00 0.00 65 1020.6
20260510013503 10 75 3.2 11.3 0.00 0.00 0.00 64 1020.4
20260510013003 10 85 3.2 12.9 0.00 0.00 0.00 64 1020.5
20260510012503 10 84 4.8 12.9 0.00 0.00 0.00 63 1020.4
20260510012003 10 75 3.2 9.7 0.00 0.00 0.00 63 1020.7
20260510011503 10 75 4.8 12.9 0.00 0.00 0.00 62 1020.6
20260510011003 10 67 4.8 12.9 0.00 0.00 0.00 61 1020.5
20260510010503 10 67 3.2 12.9 0.00 0.00 0.00 61 1020.4
20260510010003 10 72 3.2 11.3 0.00 0.00 0.00 60 1020.4
20260510005503 10 63 4.8 12.9 0.00 0.00 0.00 59 1020.4
20260510005003 10 57 4.8 12.9 0.00 0.00 0.00 58 1020.6
20260510004503 11 66 4.8 11.3 0.00 0.00 0.00 57 1020.3
20260510004003 11 69 4.8 11.3 0.00 0.00 0.00 57 1020.5
20260510003503 11 64 3.2 11.3 0.00 0.00 0.00 56 1020.6
20260510003004 11 65 3.2 11.3 0.00 0.00 0.00 56 1020.4
20260510002503 11 68 3.2 11.3 0.00 0.00 0.00 56 1020.4
20260510002003 11 70 4.8 9.7 0.00 0.00 0.00 56 1020.3
20260510001503 11 69 4.8 11.3 0.00 0.00 0.00 56 1020.3
20260510001003 11 69 4.8 12.9 0.00 0.00 0.00 57 1020.1
20260510000503 11 61 4.8 12.9 0.00 0.00 0.00 57 1020.2
20260510000003 11 64 4.8 14.5 0.00 0.00 0.00 59 1020.1
20260509235503 12 73 4.8 14.5 0.00 0.00 0.00 60 1019.9
20260509235003 12 73 4.8 12.9 0.00 0.00 0.00 61 1019.9
20260509234503 12 64 4.8 12.9 0.00 0.00 0.00 62 1020.0
20260509234003 12 56 6.4 14.5 0.00 0.00 0.00 63 1020.0
20260509233503 12 60 4.8 14.5 0.00 0.00 0.00 64 1020.0
20260509233003 12 70 4.8 12.9 0.00 0.00 0.00 65 1019.8
20260509232503 12 71 4.8 12.9 0.00 0.00 0.00 65 1019.8
20260509232003 12 69 4.8 17.7 0.00 0.00 0.00 66 1020.1
20260509231503 12 66 4.8 17.7 0.00 0.00 0.00 66 1019.7
20260509231003 12 73 3.2 11.3 0.00 0.00 0.00 67 1019.7
20260509230503 12 76 4.8 14.5 0.00 0.00 0.00 66 1019.7
20260509230004 12 68 6.4 14.5 0.00 0.00 0.00 66 1019.5
20260509225503 13 61 6.4 12.9 0.00 0.00 0.00 65 1019.2
20260509225003 13 63 4.8 14.5 0.00 0.00 0.00 65 1019.4
20260509224503 13 64 6.4 20.9 0.00 0.00 0.00 64 1019.6
20260509224006 13 64 4.8 20.9 0.00 0.00 0.00 64 1019.3
20260509223503 13 70 4.8 11.3 0.00 0.00 0.00 63 1019.6
20260509223003 13 63 3.2 9.7 0.00 0.00 0.00 63 1019.5
20260509222503 13 56 3.2 6.4 0.00 0.00 0.00 62 1019.8
20260509222006 13 59 1.6 6.4 0.00 0.00 0.00 61 1019.4
20260509221503 13 54 1.6 6.4 0.00 0.00 0.00 60 1019.7
20260509221003 13 56 3.2 11.3 0.00 0.00 0.00 59 1019.6
20260509220503 13 64 3.2 11.3 0.00 0.00 0.00 59 1019.6
20260509220004 13 65 3.2 9.7 0.00 0.00 0.00 60 1019.8
20260509215503 13 55 3.2 9.7 0.00 0.00 0.00 62 1019.3
20260509215006 14 51 3.2 9.7 0.00 0.00 0.00 62 1019.5
20260509214503 14 41 3.2 6.4 0.00 0.00 0.00 64 1019.6
20260509214003 14 21 3.2 6.4 0.00 0.00 0.00 65 1019.6
20260509213504 14 17 3.2 6.4 0.00 0.00 0.00 66 1019.5
20260509213003 14 358 3.2 6.4 0.00 0.00 0.00 66 1019.6
20260509212503 14 342 3.2 9.7 0.00 0.00 0.00 66 1019.6
20260509212003 14 331 3.2 11.3 0.00 0.00 0.00 65 1019.4
20260509211503 15 331 4.8 11.3 0.00 0.00 0.00 64 1019.2
20260509211003 15 338 4.8 12.9 0.00 0.00 0.00 61 1019.2
20260509210503 15 344 4.8 12.9 0.00 0.00 0.00 59 1019.1
20260509210003 15 13 4.8 11.3 0.00 0.00 0.00 58 1019.0
20260509205503 15 37 3.2 12.9 0.00 0.00 0.00 57 1019.1
20260509205003 15 33 3.2 12.9 0.00 0.00 0.00 54 1018.9
20260509204503 15 1 1.6 4.8 0.00 0.00 0.00 53 1019.1
20260509204003 15 20 1.6 4.8 0.00 0.00 0.00 53 1019.0
20260509203503 15 39 1.6 4.8 0.00 0.00 0.00 53 1018.8
20260509203003 15 31 1.6 4.8 0.00 0.00 0.00 53 1018.7
20260509202503 15 5 1.6 4.8 0.00 0.00 0.00 53 1018.8
20260509202005 15 11 1.6 4.8 0.00 0.00 0.00 53 1018.7
20260509201505 15 16 1.6 6.4 0.00 0.00 0.00 52 1018.7
20260509201005 15 28 1.6 6.4 0.00 0.00 0.00 52 1018.5
20260509200505 15 37 3.2 6.4 0.00 0.00 0.00 52 1018.5
20260509200005 15 37 3.2 6.4 0.00 0.00 0.00 51 1018.3
20260509195505 16 42 1.6 6.4 0.00 0.00 0.00 51 1018.4
20260509195005 16 52 1.6 4.8 0.00 0.00 0.00 51 1018.5
20260509194505 16 60 1.6 4.8 0.00 0.00 0.00 51 1018.6
20260509194005 16 58 1.6 4.8 0.00 0.00 0.00 51 1018.4
20260509193505 16 45 1.6 6.4 0.00 0.00 0.00 50 1018.6
20260509193005 16 33 3.2 6.4 0.00 0.00 0.00 50 1018.3
20260509192505 16 28 1.6 6.4 0.00 0.00 0.00 49 1018.3
20260509192005 17 27 1.6 6.4 0.00 0.00 0.00 49 1018.5
20260509191505 17 36 1.6 6.4 0.00 0.00 0.00 48 1018.4
20260509191006 17 41 1.6 6.4 0.00 0.00 0.00 47 1018.3
20260509190505 17 46 1.6 4.8 0.00 0.00 0.00 47 1018.3
20260509190006 17 58 3.2 6.4 0.00 0.00 0.00 47 1018.2
20260509185505 17 66 3.2 9.7 0.00 0.00 0.00 46 1018.1
20260509185005 18 55 3.2 9.7 0.00 0.00 0.00 45 1018.1
20260509184505 18 56 3.2 9.7 0.00 0.00 0.00 45 1018.2
20260509184005 18 64 4.8 9.7 0.00 0.00 0.00 45 1018.3
20260509183505 18 55 4.8 11.3 0.00 0.00 0.00 45 1018.2
20260509183005 18 59 4.8 12.9 0.00 0.00 0.00 44 1018.1
20260509182505 18 62 4.8 12.9 0.00 0.00 0.00 44 1018.1
20260509182005 18 63 4.8 12.9 0.00 0.00 0.00 44 1017.9
20260509181505 18 63 3.2 9.7 0.00 0.00 0.00 44 1017.9
20260509181005 19 58 4.8 14.5 0.00 0.00 0.00 43 1018.1
20260509180505 18 58 4.8 14.5 0.00 0.00 0.00 44 1018.0
20260509180005 19 62 4.8 17.7 0.00 0.00 0.00 43 1018.0
20260509175506 19 65 6.4 17.7 0.00 0.00 0.00 43 1018.0
20260509175005 19 68 6.4 14.5 0.00 0.00 0.00 42 1017.9
20260509174508 19 70 6.4 14.5 0.00 0.00 0.00 42 1017.8
20260509174005 19 71 6.4 14.5 0.00 0.00 0.00 42 1017.9
20260509173505 19 70 6.4 12.9 0.00 0.00 0.00 42 1017.8
20260509173005 19 63 6.4 14.5 0.00 0.00 0.00 43 1017.6
20260509172508 19 53 6.4 14.5 0.00 0.00 0.00 43 1017.8
20260509172005 19 56 4.8 11.3 0.00 0.00 0.00 42 1018.0
20260509171505 19 75 4.8 14.5 0.00 0.00 0.00 42 1017.9
20260509171005 19 67 6.4 14.5 0.00 0.00 0.00 42 1018.0
20260509170506 19 58 4.8 12.9 0.00 0.00 0.00 42 1018.0
20260509170005 20 61 4.8 16.1 0.00 0.00 0.00 42 1017.8
20260509165505 20 57 6.4 16.1 0.00 0.00 0.00 43 1018.0
20260509165005 20 53 6.4 14.5 0.00 0.00 0.00 43 1018.0